Regional Weather Roundup
Issued by NWS Tiyan, Guam

Home | Current Version | Previous Version | Text Only | Print | Product List | Glossary On
Versions: 1 2 3 4 5 6 7 8 9 10 11 12 13 14 15 16 17 18 19 20 21 22 23 24 25 26 27 28 29 30 31 32 33 34 35 36 37 38 39 40 41 42 43 44 45 46 47 48 49 50
000
ASGM40 PGUM 010412
RWRGUM
WEATHER ROUNDUP FOR THE MARIANAS
NATIONAL WEATHER SERVICE TIYAN GU
200 PM CHST FRI AUG 01 2014

GUZ001>004-010500-
MARIANA ISLANDS-

CITY           SKY/WX    TMP DP  RH WIND       PRES   REMARKS
GUAM AIRPORT   MOSUNNY   84  79  84 SE10      29.82F HX  96
ANDERSEN AFB   PTSUNNY   84  77  79 S10       29.83S HX  94
ROTA AIRPORT   PTSUNNY   82  77  83 SE7       29.83F HX  91
TINIAN AP      PTSUNNY   84  77  79 SE8       29.81F HX  94
SAIPAN AP      MOSUNNY   86  75  70 S8        29.83F HX  95

$$




USA.gov is the U.S. government's official web portal to all federal, state and local government web resources and services.